Location: Arpaise
(41.0333°N, 14.7333°E)
Time: 08:04:11
(UTC+00:00)

SL-16 R/B - Pass Details

Date: 05 July 2020
Orbit: 839 x 850 km, 71.0° (Epoch: 05 August)

Event Time Altitude Azimuth Distance (km) Brightness Sun altitude
Exits shadow 21:19:02 20° 93° (E) 1,847 3.7 -21.6°
Drops below altitude 10° 21:22:34 10° 54° (NE) 2,473 4.7 -21.9°
Sets 21:25:36 0° 39° (NE) 3,415 5.7 -22.2°
